Other Surface Observations
Issued by NWS

Home | Current Version | Previous Version | Text Only | Print | Product List | Glossary On
Versions: 1 2 3 4 5 6 7 8 9 10 11 12 13 14 15 16 17 18 19 20 21 22 23 24 25 26 27 28 29 30 31 32 33 34 35 36 37 38 39 40 41 42 43 44 45 46 47 48 49 50
000
SXUS52 KTAE 262118
OSOTAE
OSOTAE
North Florida/South Alabama/Southwest Georgia Weather Roundup
National Weather Service Tallahassee Florida
500 PM EDT THU APR 26 2018

Note: "fair" indicates few or no clouds below 12,000 feet with no
significant weather and/or obstructions to visibility.

!FLZ017-115-028-034-025-262200
...North Florida...

CITY           SKY/WX    TMP DP  RH WIND       PRES   REMARKS
TALLAHASSEE    PTSUNNY   79  58  48 W16       29.82F
APALACHICOLA   FAIR      78  65  63 W16       29.86F
PERRY          FAIR      77  61  59 SW15      29.87S
CROSS CITY     FAIR      75  62  62 W14       29.88S
JACKSONVILLE   PTSUNNY   81  57  43 W10G22    29.81F
$$

!FLZ112-006-005-002-011-262200
...Florida Panhandle...

CITY           SKY/WX    TMP DP  RH WIND       PRES   REMARKS
MARIANNA       PTSUNNY   77  60  55 SW9G23    29.79F
BONIFAY        MOCLDY    75  63  66 SW12G23   29.80F
PANAMA CITY NW PTSUNNY   75  65  70 S20       29.81F
TYNDALL AFB    SUNNY     73  66  77 SW10      29.84F
TYND DRONE APT MOCLDY    73  66  80 SW7       29.85F
DE FUNIAK SPR  MOCLDY    75  62  62 SW9G18    29.81F
EGLIN AFB      PTSUNNY   76  60  56 SW16G23   29.80F
DESTIN         FAIR      76  61  59 SW13G21   29.82F
HURLBURT       FAIR      74  63  66 SW12G24   29.80F
CRESTVIEW      PTSUNNY   76  62  62 W12G18    29.81F
PENSACOLA      FAIR      78  59  51 W14G21    29.80F
$$

!ALZ063-066-262200
...South Alabama...

CITY           SKY/WX    TMP DP  RH WIND       PRES   REMARKS
DOTHAN         CLOUDY    67  64  90 W9        29.83S
OZARK CAIRNS   PTSUNNY   70  64  83 W13       29.80S
FT RUCKER HELI PTSUNNY   70  64  83 W8        29.80S
RUCKER HELI 3  PTSUNNY   68  63  83 NW14G20   29.79F
RUCKER HELI 2  PTSUNNY   68  64  88 W8        29.79S
FLORALA APT    FAIR      73  61  65 W8        29.82F
ANDALUSIA      FAIR      73  60  63 W9        29.80F
TROY           FAIR      68  59  73 W12G17    29.81F
EUFALA         CLOUDY    70  65  84 VRB6      29.78F
MOBILE         FAIR      74  52  46 NW9       29.85S
$$

!GAZ120>161-262200
...Southwest and South Central Georgia...

CITY           SKY/WX    TMP DP  RH WIND       PRES   REMARKS
THOMASVILLE    PTSUNNY   79  55  44 SW9G16    29.82F
BAINBRIDGE       N/A     79  63  57 SW14G24   29.80F
MOODY AFB      PTSUNNY   79  56  43 W7        29.81F
VALDOSTA       PTSUNNY   77  58  51 SW5       29.82F
MOULTRIE       FAIR      77  55  47 SW10G20   29.82F
BLAKELY        CLOUDY    72  63  73 SW5       29.79F
ALBANY         CLOUDY    77  57  50 S13       29.80F
TIFTON         FAIR      76  56  49 SW6       29.81F
FITZGERALD     FAIR      77  57  49 SW6       29.83F
CORDELE        MOCLDY    78  52  40 S8        29.80F
AMERICUS       RAIN      63  55  77 NW9       29.84R
HOMERVILLE     FAIR      79  54  41 W9G16     29.82F
$$

!GMZ750-755-770-775-262200
...Coastal and Buoy Obs...

STATION/POSITION TIME  TEMP    WIND        PRES    VSBY  WAVE
                       AIR SEA DIR/SP/G                  HT/PER
                 (UTC) (F)     (DEG/KT/KT) (MB)    (MI)  (FT/S)
KEATON BEACH     2100   71     230/ 15/ 17 1011.8F
CEDAR KEY        2100   73     260/  8/ 12 1012.6F
C TOWER          2100   71     240/ 11/ 12 1011.7F
APALACHICOLA BUO NOT AVBL
PANAMA CITY BUOY 2050   74 74  260/ 14/ 16 1011.2F         2/ 4
MOBILE BUOY      2100      73  270/ 14/ 16 1011.4
ORANGE BCH AL BU 2100   68     260/ 16/ 17 1010.4
$$




USA.gov is the U.S. government's official web portal to all federal, state and local government web resources and services.